{"data":{"norad_id":59459,"intl_designator":"2024-068E","name":"STARLINK-31631","alt_names":[],"object_type":"PAYLOAD","status":"ACTIVE","operator":null,"country":"US","launch_date":"2024-04-10","launch_site_code":"AFETR","launch_vehicle":null,"mission":null,"orbit_class":"UNKNOWN","rcs_meters":null,"size_class":null,"mass_kg":null,"dimensions":null,"purposes":["comms"],"wikipedia_slug":null,"has_3d_model":false,"image_url":null,"decayed_at":null,"tle_current":{"epoch":"2026-09-21T07:26:21.387264Z","epoch_age_seconds":94923,"freshness":"FRESH","line1":"1 59459U 24068E   26264.30996976 -.00001110  00000+0 -30824-4 0  9996","line2":"2 59459  43.0027   6.0141 0000772 228.4458 131.6328 15.27565274138483","mean_motion":15.27565274,"eccentricity":7.72e-5,"inclination_deg":43.0027,"raan_deg":6.0141,"arg_perigee_deg":228.4458,"mean_anomaly_deg":131.6328,"bstar":-3.0824e-5,"rev_number":13848,"period_min":94.267657461818,"perigee_km":482.56350436477,"apogee_km":483.62287830631,"semimajor_km":6861.2301913355,"source":"CELESTRAK","updated_at":"2026-09-22T09:00:48.944097Z"}}}